1998-067TQ (53305 NORAD) Tracking and Keplerian Element Data

This shows tracking and keplerian element data for the satellite.

Feedback or suggestion? Click here.




ElementValue
Catalog53305
Name1998-067TQ
Epoch Orbit1906
Epoch Day325.08899518
Epoch Year2022
RAAN274.5391
Inclination51.6377
Eccentricity0.0008366
Argument of Perigee103.8933
Mean Anonmoly256.2993
Mean Motion15.63820247
Decay Rate0.00079338
L11 53305U 98067TQ 22325.08899518 .00079338 00000+0 82615-3 0 9992
L22 53305 51.6377 274.5391 0008366 103.8933 256.2993 15.63820247 19068



Live tracking and technical data element details for 1998-067TQ (NORAD 53305). 1998-067TQ can be tracked NOW for your location showing map with azimuth and elevation plus other details from your city location.







IsCatalogInMostPopularTable: catalog: 53305, numindb: 15
Update: records affected: 1



GetName: 53305 1998-067TQ

Hit Count: updated at: Thu, 08 Dec 2022 10:32:41 GMT